contact:dominique.lefevre@mio.osupytheas.fr, maurice.libes@osupytheas.fr, didier.mallarino@osupytheas.fr
Project:EMSO http://www.emso-fr.org/EMSO-France
Depth: 2436.0 m
Title:EMSO Ligure Ouest : Data MII capteur AQUADOPP
Date,Latitude,Longitude,X_East,Y_North,Z_Up,Amplitude_X,Amplitude_Y,Amplitude_Z,Batterie,SoundSpeed,Heading,Pitch,Roll,Pressure,TIS,Speed,Direction
, degrees North, degrees East, m.s-1, m.s-1,m.s-1, 1, 1, 1, Volt, m.s-1, degree, degree, degree, dbar, degree_C, m.s-1, degree
2020-02-26T00:04:03,42.805,6.029,-0.061,0.042,-0.01,108.0,115.0,104.0,13.3,1505.2,323.3,-0.8,1.8,2470.192,13.3,0.074,304.6
2020-02-26T00:07:03,42.805,6.029,-0.05,0.03,0.011,108.0,114.0,104.0,13.4,1505.3,326.5,-0.7,1.8,2470.175,13.31,0.058,301.0
2020-02-26T00:13:02,42.805,6.029,-0.049,0.041,-0.002,108.0,116.0,105.0,13.4,1505.2,324.0,-0.8,1.8,2470.248,13.3,0.063,309.9
2020-02-26T00:16:03,42.805,6.029,-0.037,0.065,0.003,107.0,115.0,104.0,13.4,1505.3,327.1,-0.8,1.8,2470.211,13.31,0.074,330.3
2020-02-26T00:19:03,42.805,6.029,-0.03,0.06,0.0,109.0,114.0,104.0,13.3,1505.3,325.1,-0.7,1.9,2470.161,13.31,0.067,333.4
2020-02-26T00:22:03,42.805,6.029,-0.053,0.052,-0.017,111.0,114.0,105.0,13.4,1505.3,327.6,-0.7,1.8,2470.185,13.32,0.074,314.5
2020-02-26T00:25:03,42.805,6.029,-0.055,0.045,-0.019,109.0,114.0,104.0,13.3,1505.3,325.9,-0.7,1.8,2470.159,13.32,0.071,309.3
2020-02-26T00:28:03,42.805,6.029,-0.056,0.06,-0.022,108.0,114.0,104.0,13.3,1505.3,325.5,-0.7,1.8,2470.158,13.32,0.082,317.0
2020-02-26T00:31:03,42.805,6.029,-0.031,0.055,-0.016,109.0,114.0,104.0,13.4,1505.3,326.4,-0.7,1.8,2470.165,13.32,0.063,330.6
2020-02-26T00:34:03,42.805,6.029,-0.042,0.043,0.013,109.0,114.0,104.0,13.3,1505.3,327.3,-0.7,1.9,2470.167,13.32,0.06,315.7
2020-02-26T00:37:03,42.805,6.029,-0.077,0.026,-0.031,107.0,114.0,105.0,13.3,1505.3,323.9,-0.7,1.9,2470.14,13.33,0.081,288.7
2020-02-26T00:40:03,42.805,6.029,-0.035,0.037,-0.022,108.0,114.0,103.0,13.4,1505.3,324.1,-0.7,1.8,2470.15,13.33,0.05,316.6
2020-02-26T00:43:03,42.805,6.029,-0.031,0.038,-0.028,108.0,113.0,104.0,13.4,1505.3,327.6,-0.7,1.8,2470.142,13.33,0.049,320.8
2020-02-26T00:46:03,42.805,6.029,-0.047,0.048,-0.02,107.0,112.0,104.0,13.4,1505.3,323.5,-0.7,1.8,2470.108,13.33,0.067,315.6
2020-02-26T00:49:03,42.805,6.029,-0.055,0.049,-0.02,108.0,114.0,104.0,13.4,1505.3,326.5,-0.7,1.8,2470.143,13.33,0.073,311.7
2020-02-26T00:52:03,42.805,6.029,-0.04,0.035,0.016,110.0,115.0,103.0,13.4,1505.3,324.9,-0.7,1.8,2470.124,13.33,0.053,311.2
2020-02-26T00:55:03,42.805,6.029,-0.051,0.048,-0.037,109.0,116.0,103.0,13.4,1505.3,327.8,-0.7,1.8,2470.121,13.33,0.07,313.3
2020-02-26T00:58:03,42.805,6.029,-0.044,0.048,-0.026,109.0,114.0,105.0,13.4,1505.3,326.2,-0.7,1.8,2470.12,13.32,0.065,317.5
2020-02-26T01:04:03,42.805,6.029,-0.034,0.044,-0.022,109.0,113.0,105.0,13.4,1505.3,325.8,-0.7,1.9,2470.164,13.31,0.055,322.3
2020-02-26T01:07:02,42.805,6.029,-0.038,0.029,-0.051,108.0,113.0,106.0,13.4,1505.3,325.8,-0.7,1.9,2470.127,13.31,0.047,307.3
2020-02-26T01:10:03,42.805,6.029,-0.053,0.043,-0.024,107.0,114.0,104.0,13.4,1505.3,325.7,-0.7,1.8,2470.139,13.32,0.068,309.1
2020-02-26T01:13:03,42.805,6.029,-0.043,0.039,-0.028,107.0,114.0,104.0,13.4,1505.3,326.7,-0.7,1.8,2470.134,13.32,0.058,312.2
2020-02-26T01:16:03,42.805,6.029,-0.043,0.035,-0.007,108.0,115.0,104.0,13.4,1505.3,324.5,-0.7,1.8,2470.118,13.32,0.055,309.1
2020-02-26T01:19:03,42.805,6.029,-0.059,0.059,0.028,108.0,113.0,104.0,13.4,1505.3,322.9,-0.7,1.9,2470.124,13.32,0.083,315.0
2020-02-26T01:22:03,42.805,6.029,-0.066,0.056,0.0,109.0,114.0,104.0,13.4,1505.3,328.2,-0.7,1.8,2470.15,13.32,0.086,310.3
2020-02-26T01:25:03,42.805,6.029,-0.061,0.043,-0.008,107.0,114.0,104.0,13.3,1505.3,325.9,-0.7,1.8,2470.121,13.32,0.074,305.2
2020-02-26T01:28:03,42.805,6.029,-0.06,0.053,-0.015,108.0,115.0,103.0,13.4,1505.3,325.6,-0.7,1.8,2470.118,13.33,0.08,311.5
2020-02-26T01:31:03,42.805,6.029,-0.043,0.033,-0.033,108.0,115.0,104.0,13.3,1505.3,328.0,-0.7,1.8,2470.106,13.32,0.054,307.5
2020-02-26T01:34:03,42.805,6.029,-0.061,0.046,-0.006,108.0,115.0,103.0,13.4,1505.3,326.5,-0.7,1.8,2470.128,13.32,0.076,307.0
2020-02-26T01:37:03,42.805,6.029,-0.047,0.043,0.0,108.0,115.0,105.0,13.3,1505.3,323.1,-0.7,1.8,2470.15,13.32,0.063,312.5
2020-02-26T01:40:03,42.805,6.029,-0.049,0.041,-0.003,109.0,115.0,105.0,13.4,1505.3,326.4,-0.7,1.8,2470.08,13.32,0.063,309.9
2020-02-26T01:43:03,42.805,6.029,-0.058,0.052,-0.029,108.0,115.0,103.0,13.4,1505.3,326.0,-0.7,1.9,2470.093,13.32,0.077,311.9
2020-02-26T01:46:03,42.805,6.029,-0.018,0.05,0.017,108.0,115.0,104.0,13.4,1505.3,326.7,-0.7,1.8,2470.096,13.32,0.053,340.2
2020-02-26T01:49:03,42.805,6.029,-0.071,0.057,-0.001,107.0,114.0,103.0,13.4,1505.3,327.6,-0.7,1.8,2470.091,13.32,0.091,308.8
2020-02-26T01:52:03,42.805,6.029,-0.09,0.049,0.007,108.0,115.0,104.0,13.4,1505.3,324.3,-0.7,1.8,2470.098,13.32,0.102,298.6
2020-02-26T01:55:03,42.805,6.029,-0.044,0.045,-0.033,108.0,116.0,103.0,13.3,1505.3,323.2,-0.7,1.8,2470.072,13.32,0.062,315.6
2020-02-26T01:58:03,42.805,6.029,-0.036,0.035,-0.032,108.0,113.0,105.0,13.4,1505.3,326.5,-0.7,1.8,2470.119,13.32,0.05,314.2
2020-02-26T02:04:03,42.805,6.029,-0.046,0.036,-0.003,107.0,115.0,104.0,13.3,1505.3,324.1,-0.8,1.8,2470.174,13.31,0.058,308.0
2020-02-26T02:07:03,42.805,6.029,-0.035,0.031,-0.012,109.0,115.0,103.0,13.4,1505.3,324.2,-0.7,1.9,2470.065,13.31,0.046,311.5
2020-02-26T02:10:03,42.805,6.029,-0.04,0.059,0.001,111.0,114.0,105.0,13.4,1505.3,323.3,-0.7,1.8,2470.112,13.32,0.071,325.9
2020-02-26T02:13:03,42.805,6.029,-0.06,0.066,-0.004,107.0,115.0,104.0,13.3,1505.3,327.8,-0.7,1.8,2470.167,13.32,0.089,317.7
2020-02-26T02:16:03,42.805,6.029,-0.019,0.069,0.015,108.0,116.0,104.0,13.4,1505.3,324.8,-0.7,1.8,2470.123,13.32,0.071,344.6
2020-02-26T02:19:03,42.805,6.029,-0.053,0.038,0.008,108.0,114.0,105.0,13.4,1505.3,326.5,-0.7,1.8,2470.113,13.32,0.065,305.6
2020-02-26T02:22:03,42.805,6.029,-0.044,0.043,0.002,109.0,116.0,103.0,13.4,1505.3,326.6,-0.7,1.9,2470.077,13.32,0.061,314.3
2020-02-26T02:25:03,42.805,6.029,-0.027,0.053,-0.001,107.0,115.0,104.0,13.3,1505.3,327.8,-0.7,1.8,2470.115,13.32,0.059,333.0
2020-02-26T02:28:03,42.805,6.029,-0.039,0.038,-0.025,107.0,114.0,106.0,13.3,1505.3,326.6,-0.7,1.8,2470.096,13.32,0.054,314.3
2020-02-26T02:31:03,42.805,6.029,-0.056,0.058,-0.009,107.0,116.0,104.0,13.3,1505.3,325.0,-0.7,1.8,2470.09,13.32,0.08,316.0
2020-02-26T02:34:03,42.805,6.029,-0.035,0.048,-0.016,108.0,117.0,103.0,13.4,1505.3,325.3,-0.7,1.8,2470.088,13.32,0.059,323.9
2020-02-26T02:37:03,42.805,6.029,-0.053,0.024,0.001,107.0,114.0,104.0,13.4,1505.3,324.0,-0.7,1.8,2470.102,13.33,0.058,294.4
2020-02-26T02:40:03,42.805,6.029,-0.039,0.045,-0.007,108.0,115.0,104.0,13.4,1505.3,327.8,-0.7,1.8,2470.065,13.33,0.059,319.1
2020-02-26T02:43:03,42.805,6.029,-0.039,0.048,0.004,107.0,117.0,103.0,13.3,1505.3,327.0,-0.7,1.8,2470.1,13.33,0.061,320.9
2020-02-26T02:46:03,42.805,6.029,-0.047,0.043,0.009,108.0,116.0,104.0,13.4,1505.3,325.5,-0.7,1.8,2470.092,13.33,0.063,312.5
2020-02-26T02:49:03,42.805,6.029,-0.04,0.053,-0.026,108.0,116.0,103.0,13.4,1505.3,324.6,-0.7,1.8,2470.077,13.33,0.066,323.0
2020-02-26T02:52:03,42.805,6.029,-0.037,0.035,0.004,109.0,116.0,105.0,13.4,1505.3,322.8,-0.7,1.8,2470.111,13.33,0.05,313.4
2020-02-26T02:55:03,42.805,6.029,-0.032,0.029,-0.003,108.0,115.0,105.0,13.4,1505.3,324.2,-0.7,1.8,2470.061,13.33,0.043,312.2
2020-02-26T02:58:03,42.805,6.029,-0.047,0.051,-0.031,108.0,114.0,104.0,13.3,1505.3,324.7,-0.7,1.9,2470.061,13.33,0.069,317.3
2020-02-26T03:04:03,42.805,6.029,-0.03,0.023,-0.006,109.0,116.0,105.0,13.3,1505.3,323.0,-0.7,1.8,2470.124,13.31,0.037,307.5
2020-02-26T03:07:03,42.805,6.029,-0.031,0.031,0.007,107.0,114.0,105.0,13.4,1505.3,325.2,-0.7,1.9,2470.072,13.31,0.043,315.0
2020-02-26T03:10:03,42.805,6.029,-0.064,0.034,-0.016,107.0,113.0,105.0,13.4,1505.3,324.8,-0.7,1.8,2470.055,13.32,0.072,298.0
2020-02-26T03:13:03,42.805,6.029,-0.056,0.059,-0.015,108.0,114.0,104.0,13.4,1505.3,324.8,-0.7,1.8,2470.11,13.32,0.081,316.5
2020-02-26T03:16:03,42.805,6.029,-0.046,0.04,-0.054,107.0,115.0,104.0,13.4,1505.3,328.1,-0.7,1.8,2470.14,13.32,0.06,311.0
2020-02-26T03:19:03,42.805,6.029,-0.037,0.038,0.005,107.0,115.0,104.0,13.4,1505.3,325.4,-0.7,1.8,2470.126,13.32,0.053,315.8
2020-02-26T03:22:03,42.805,6.029,-0.004,0.05,0.025,106.0,114.0,103.0,13.4,1505.3,327.6,-0.7,1.8,2470.075,13.33,0.05,355.4
2020-02-26T03:25:03,42.805,6.029,-0.042,0.066,-0.005,108.0,114.0,103.0,13.3,1505.3,324.3,-0.7,1.8,2470.068,13.33,0.078,327.5
2020-02-26T03:28:03,42.805,6.029,-0.026,0.038,-0.023,106.0,116.0,104.0,13.4,1505.3,324.3,-0.7,1.8,2470.133,13.33,0.046,325.6
2020-02-26T03:31:03,42.805,6.029,-0.032,0.071,-0.006,106.0,116.0,103.0,13.4,1505.3,328.5,-0.7,1.8,2470.083,13.32,0.077,335.7
2020-02-26T03:34:03,42.805,6.029,-0.055,0.038,-0.031,105.0,116.0,103.0,13.3,1505.3,323.3,-0.7,1.8,2470.129,13.33,0.066,304.6
2020-02-26T03:37:03,42.805,6.029,-0.058,0.047,-0.058,108.0,112.0,103.0,13.4,1505.3,326.3,-0.7,1.8,2470.09,13.33,0.074,309.0
2020-02-26T03:40:03,42.805,6.029,-0.02,0.026,0.012,105.0,113.0,105.0,13.4,1505.3,326.3,-0.7,1.8,2470.09,13.33,0.032,322.4
2020-02-26T03:43:03,42.805,6.029,-0.04,0.042,-0.004,106.0,114.0,103.0,13.3,1505.3,328.6,-0.7,1.8,2470.074,13.33,0.057,316.4
2020-02-26T03:46:03,42.805,6.029,-0.03,0.065,0.017,106.0,116.0,102.0,13.3,1505.3,327.9,-0.8,1.8,2470.067,13.33,0.071,335.2
2020-02-26T03:49:03,42.805,6.029,-0.034,0.046,-0.018,106.0,116.0,102.0,13.3,1505.3,326.9,-0.7,1.8,2470.107,13.33,0.057,323.5
2020-02-26T03:52:03,42.805,6.029,-0.035,0.054,-0.027,107.0,115.0,103.0,13.4,1505.3,325.5,-0.7,1.8,2470.123,13.33,0.064,327.0
2020-02-26T03:55:03,42.805,6.029,-0.031,0.057,0.0,107.0,115.0,104.0,13.4,1505.3,325.2,-0.7,1.8,2470.105,13.33,0.064,331.5
2020-02-26T03:58:03,42.805,6.029,-0.038,0.042,-0.035,107.0,116.0,103.0,13.4,1505.3,325.4,-0.7,1.8,2470.101,13.33,0.056,317.9
2020-02-26T04:04:03,42.805,6.029,-0.036,0.056,-0.01,106.0,115.0,104.0,13.3,1505.3,326.6,-0.7,1.8,2470.131,13.31,0.066,327.3
2020-02-26T04:07:03,42.805,6.029,-0.057,0.047,-0.016,108.0,115.0,104.0,13.4,1505.3,324.2,-0.7,1.8,2470.104,13.31,0.073,309.5
2020-02-26T04:10:03,42.805,6.029,-0.056,0.042,-0.004,107.0,114.0,103.0,13.3,1505.3,324.4,-0.7,1.8,2470.113,13.32,0.069,306.9
2020-02-26T04:13:03,42.805,6.029,-0.026,0.03,0.021,106.0,114.0,104.0,13.4,1505.3,327.8,-0.7,1.8,2470.1,13.32,0.039,319.1
2020-02-26T04:16:03,42.805,6.029,-0.019,0.05,-0.033,107.0,115.0,103.0,13.4,1505.3,324.1,-0.7,1.8,2470.105,13.32,0.053,339.2
2020-02-26T04:19:03,42.805,6.029,-0.051,0.06,0.001,107.0,117.0,103.0,13.4,1505.3,326.7,-0.7,1.8,2470.134,13.32,0.078,319.6
2020-02-26T04:22:03,42.805,6.029,-0.044,0.035,-0.006,108.0,117.0,103.0,13.4,1505.3,325.6,-0.7,1.8,2470.075,13.32,0.056,308.5
2020-02-26T04:25:03,42.805,6.029,-0.046,0.045,-0.029,107.0,115.0,104.0,13.4,1505.3,328.6,-0.7,1.8,2470.079,13.33,0.064,314.4
2020-02-26T04:28:03,42.805,6.029,-0.022,0.03,-0.024,107.0,114.0,104.0,13.4,1505.3,328.4,-0.7,1.8,2470.098,13.32,0.037,323.7
2020-02-26T04:31:03,42.805,6.029,-0.051,0.05,-0.053,107.0,115.0,103.0,13.3,1505.3,324.5,-0.7,1.8,2470.125,13.33,0.071,314.4
2020-02-26T04:34:03,42.805,6.029,-0.038,0.04,-0.012,107.0,114.0,104.0,13.4,1505.3,326.9,-0.7,1.8,2470.122,13.33,0.055,316.5
2020-02-26T04:37:03,42.805,6.029,-0.038,0.041,-0.009,107.0,116.0,104.0,13.4,1505.3,324.0,-0.7,1.9,2470.117,13.33,0.055,317.2
2020-02-26T04:40:03,42.805,6.029,-0.047,0.04,-0.047,107.0,115.0,104.0,13.4,1505.3,328.4,-0.7,1.8,2470.125,13.33,0.061,310.4
2020-02-26T04:43:03,42.805,6.029,-0.032,0.061,-0.017,108.0,116.0,103.0,13.3,1505.3,327.2,-0.7,1.8,2470.124,13.33,0.068,332.3
2020-02-26T04:46:03,42.805,6.029,-0.037,0.056,-0.012,109.0,115.0,103.0,13.3,1505.3,323.3,-0.8,1.8,2470.105,13.33,0.067,326.5
2020-02-26T04:49:03,42.805,6.029,-0.033,0.039,0.022,109.0,114.0,103.0,13.3,1505.3,327.6,-0.7,1.8,2470.148,13.33,0.051,319.8
2020-02-26T04:52:03,42.805,6.029,-0.04,0.041,0.018,108.0,114.0,105.0,13.4,1505.3,325.3,-0.7,1.9,2470.113,13.33,0.057,315.7
2020-02-26T04:55:03,42.805,6.029,-0.046,0.043,-0.03,108.0,114.0,105.0,13.4,1505.3,324.1,-0.7,1.8,2470.137,13.33,0.062,313.1
2020-02-26T04:58:03,42.805,6.029,-0.028,0.057,-0.016,107.0,115.0,104.0,13.4,1505.3,327.2,-0.7,1.8,2470.129,13.33,0.063,333.8
2020-02-26T05:04:03,42.805,6.029,-0.059,0.07,0.002,108.0,115.0,104.0,13.4,1505.3,324.5,-0.8,1.8,2470.149,13.31,0.091,319.9
2020-02-26T05:07:03,42.805,6.029,-0.027,0.059,-0.037,108.0,114.0,104.0,13.4,1505.3,328.5,-0.7,1.8,2470.147,13.31,0.064,335.4
2020-02-26T05:10:03,42.805,6.029,-0.043,0.055,-0.026,109.0,116.0,104.0,13.3,1505.3,325.6,-0.7,1.8,2470.148,13.32,0.069,322.0
2020-02-26T05:13:03,42.805,6.029,-0.027,0.044,-0.007,107.0,116.0,103.0,13.3,1505.3,324.2,-0.7,1.9,2470.138,13.32,0.051,328.5
2020-02-26T05:16:03,42.805,6.029,-0.03,0.04,-0.024,109.0,115.0,104.0,13.4,1505.3,328.1,-0.7,1.9,2470.158,13.32,0.05,323.1
2020-02-26T05:19:03,42.805,6.029,-0.031,0.055,0.018,107.0,115.0,105.0,13.3,1505.3,326.5,-0.7,1.8,2470.183,13.32,0.063,330.6
2020-02-26T05:22:03,42.805,6.029,-0.075,0.046,-0.032,107.0,116.0,104.0,13.4,1505.3,324.0,-0.7,1.8,2470.16,13.33,0.087,301.5
2020-02-26T05:25:03,42.805,6.029,0.022,0.046,0.018,108.0,114.0,103.0,13.3,1505.3,324.2,-0.7,1.8,2470.145,13.33,0.05,25.6
2020-02-26T05:28:03,42.805,6.029,-0.038,0.013,-0.032,106.0,116.0,105.0,13.4,1505.3,327.9,-0.7,1.8,2470.19,13.33,0.04,288.9
2020-02-26T05:31:03,42.805,6.029,-0.038,0.026,-0.016,109.0,114.0,104.0,13.4,1505.3,324.8,-0.7,1.8,2470.157,13.33,0.046,304.4
2020-02-26T05:34:03,42.805,6.029,-0.023,0.032,-0.022,108.0,116.0,104.0,13.3,1505.3,325.0,-0.7,1.8,2470.164,13.33,0.039,324.3
2020-02-26T05:37:03,42.805,6.029,-0.036,0.029,-0.04,108.0,115.0,104.0,13.4,1505.3,326.4,-0.7,1.8,2470.171,13.33,0.046,308.9
2020-02-26T05:40:03,42.805,6.029,-0.025,0.029,0.009,109.0,113.0,104.0,13.4,1505.3,325.6,-0.7,1.8,2470.166,13.33,0.038,319.2
2020-02-26T05:43:03,42.805,6.029,-0.056,0.039,-0.026,109.0,115.0,106.0,13.4,1505.3,323.5,-0.7,1.8,2470.164,13.33,0.068,304.9
2020-02-26T05:46:03,42.805,6.029,-0.038,0.038,-0.018,108.0,115.0,105.0,13.4,1505.3,327.9,-0.7,1.8,2470.166,13.33,0.053,315.0
2020-02-26T05:49:03,42.805,6.029,-0.036,0.034,-0.028,107.0,115.0,105.0,13.4,1505.3,324.6,-0.7,1.8,2470.19,13.33,0.049,313.4
2020-02-26T05:52:03,42.805,6.029,-0.022,0.037,-0.017,109.0,116.0,104.0,13.3,1505.3,325.9,-0.7,1.8,2470.214,13.33,0.043,329.3
2020-02-26T05:55:03,42.805,6.029,-0.02,0.026,-0.021,110.0,116.0,104.0,13.3,1505.3,324.4,-0.7,1.8,2470.172,13.33,0.032,322.4
2020-02-26T05:58:03,42.805,6.029,-0.034,0.019,-0.043,109.0,115.0,105.0,13.4,1505.3,325.8,-0.7,1.8,2470.186,13.33,0.038,299.2
2020-02-26T06:04:03,42.805,6.029,-0.029,0.029,-0.015,110.0,115.0,105.0,13.4,1505.3,324.7,-0.7,1.8,2470.214,13.31,0.041,315.0
2020-02-26T06:07:03,42.805,6.029,-0.035,0.04,-0.019,108.0,116.0,104.0,13.4,1505.3,324.5,-0.8,1.8,2470.198,13.32,0.053,318.8
2020-02-26T06:10:03,42.805,6.029,-0.029,0.028,-0.027,108.0,118.0,105.0,13.4,1505.3,322.9,-0.7,1.8,2470.227,13.32,0.04,314.0
2020-02-26T06:13:03,42.805,6.029,-0.008,0.044,-0.012,109.0,116.0,105.0,13.4,1505.3,324.7,-0.7,1.8,2470.226,13.32,0.044,349.7
2020-02-26T06:16:03,42.805,6.029,-0.028,0.027,-0.019,110.0,115.0,106.0,13.4,1505.3,324.1,-0.7,1.8,2470.241,13.33,0.038,314.0
2020-02-26T06:19:03,42.805,6.029,-0.039,0.04,-0.021,108.0,115.0,105.0,13.4,1505.3,325.2,-0.7,1.8,2470.218,13.33,0.055,315.7
2020-02-26T06:22:03,42.805,6.029,-0.049,0.059,-0.033,108.0,116.0,105.0,13.4,1505.3,324.4,-0.7,1.8,2470.201,13.33,0.076,320.3
2020-02-26T06:25:03,42.805,6.029,-0.02,0.054,-0.006,107.0,116.0,103.0,13.4,1505.3,326.4,-0.7,1.8,2470.242,13.33,0.057,339.7
2020-02-26T06:28:03,42.805,6.029,-0.033,0.051,-0.043,105.0,113.0,102.0,13.4,1505.3,327.0,-0.7,1.8,2470.247,13.33,0.06,327.1
2020-02-26T06:31:03,42.805,6.029,-0.027,0.043,-0.062,107.0,112.0,102.0,13.4,1505.3,326.9,-0.7,1.8,2470.212,13.33,0.05,327.9
2020-02-26T06:34:03,42.805,6.029,-0.029,0.052,-0.067,104.0,113.0,103.0,13.4,1505.3,328.3,-0.7,1.8,2470.242,13.33,0.059,330.9
2020-02-26T06:37:03,42.805,6.029,-0.02,0.042,-0.035,105.0,113.0,101.0,13.4,1505.3,326.1,-0.7,1.8,2470.21,13.33,0.046,334.5
2020-02-26T06:40:03,42.805,6.029,-0.001,0.044,-0.035,105.0,112.0,102.0,13.4,1505.3,328.6,-0.7,1.8,2470.261,13.33,0.044,358.7
2020-02-26T06:43:03,42.805,6.029,-0.035,0.04,-0.056,105.0,112.0,101.0,13.4,1505.3,325.7,-0.7,1.8,2470.243,13.33,0.053,318.8
2020-02-26T06:46:03,42.805,6.029,-0.013,0.037,-0.046,104.0,112.0,102.0,13.4,1505.3,327.7,-0.7,1.8,2470.233,13.33,0.039,340.6
2020-02-26T06:49:03,42.805,6.029,-0.003,0.046,-0.029,104.0,113.0,101.0,13.3,1505.3,324.3,-0.7,1.8,2470.264,13.33,0.046,356.3
2020-02-26T06:52:03,42.805,6.029,-0.043,0.058,-0.029,105.0,112.0,101.0,13.4,1505.3,327.0,-0.7,1.8,2470.21,13.33,0.072,323.4
2020-02-26T06:55:03,42.805,6.029,0.018,0.044,-0.032,106.0,112.0,101.0,13.4,1505.3,327.6,-0.7,1.8,2470.268,13.33,0.047,22.2
2020-02-26T06:58:03,42.805,6.029,-0.029,0.041,-0.056,104.0,111.0,102.0,13.3,1505.3,324.3,-0.7,1.8,2470.256,13.33,0.05,324.7
2020-02-26T07:04:03,42.805,6.029,-0.032,0.046,-0.019,103.0,116.0,102.0,13.4,1505.3,323.7,-0.7,1.8,2470.284,13.31,0.056,325.2
2020-02-26T07:07:03,42.805,6.029,-0.043,0.053,-0.047,104.0,113.0,101.0,13.3,1505.3,326.1,-0.7,1.8,2470.253,13.32,0.068,320.9
2020-02-26T07:10:03,42.805,6.029,-0.031,0.052,-0.054,103.0,112.0,100.0,13.4,1505.3,328.2,-0.7,1.8,2470.258,13.32,0.06,329.2
2020-02-26T07:13:03,42.805,6.029,-0.007,0.055,-0.044,101.0,113.0,101.0,13.4,1505.3,326.6,-0.7,1.8,2470.286,13.33,0.055,352.7
2020-02-26T07:16:03,42.805,6.029,-0.012,0.046,-0.05,103.0,111.0,101.0,13.4,1505.3,324.5,-0.7,1.8,2470.277,13.33,0.047,345.4
2020-02-26T07:19:03,42.805,6.029,-0.014,0.046,-0.029,103.0,112.0,101.0,13.4,1505.3,327.7,-0.7,1.8,2470.265,13.33,0.048,343.1
2020-02-26T07:22:03,42.805,6.029,-0.025,0.047,-0.033,103.0,112.0,100.0,13.4,1505.3,326.3,-0.7,1.8,2470.275,13.33,0.053,332.0
2020-02-26T07:25:03,42.805,6.029,-0.023,0.045,-0.032,104.0,111.0,101.0,13.4,1505.3,324.9,-0.7,1.8,2470.286,13.33,0.05,332.9
2020-02-26T07:28:03,42.805,6.029,-0.02,0.071,-0.018,104.0,112.0,100.0,13.4,1505.3,327.8,-0.7,1.9,2470.23,13.33,0.073,344.3
2020-02-26T07:31:03,42.805,6.029,0.0,0.049,-0.013,103.0,112.0,101.0,13.4,1505.3,322.8,-0.7,1.8,2470.291,13.33,0.049,0.0
2020-02-26T07:34:03,42.805,6.029,-0.024,0.042,-0.058,105.0,111.0,100.0,13.3,1505.3,326.2,-0.7,1.9,2470.267,13.33,0.048,330.3
2020-02-26T07:37:03,42.805,6.029,-0.001,0.044,-0.003,103.0,113.0,100.0,13.4,1505.3,323.9,-0.7,1.9,2470.292,13.33,0.044,358.7
2020-02-26T07:40:03,42.805,6.029,-0.049,0.056,-0.061,103.0,110.0,101.0,13.4,1505.3,325.1,-0.7,1.8,2470.282,13.33,0.074,318.8
2020-02-26T07:43:03,42.805,6.029,-0.022,0.043,-0.054,102.0,110.0,100.0,13.3,1505.3,326.5,-0.7,1.8,2470.274,13.33,0.048,332.9
2020-02-26T07:46:03,42.805,6.029,-0.048,0.035,-0.023,103.0,110.0,100.0,13.4,1505.3,323.5,-0.7,1.8,2470.285,13.33,0.059,306.1
2020-02-26T07:49:03,42.805,6.029,-0.034,0.047,-0.026,103.0,113.0,101.0,13.4,1505.3,325.3,-0.7,1.9,2470.263,13.33,0.058,324.1
2020-02-26T07:52:03,42.805,6.029,-0.014,0.052,-0.047,102.0,111.0,101.0,13.4,1505.3,326.4,-0.7,1.8,2470.299,13.33,0.053,344.9
2020-02-26T07:55:03,42.805,6.029,-0.052,0.047,-0.034,102.0,111.0,101.0,13.3,1505.3,324.6,-0.7,1.8,2470.306,13.33,0.07,312.1
2020-02-26T07:58:03,42.805,6.029,-0.04,0.048,-0.027,104.0,110.0,100.0,13.4,1505.3,326.4,-0.7,1.8,2470.29,13.33,0.062,320.2
2020-02-26T08:04:03,42.805,6.029,-0.007,0.039,-0.039,102.0,114.0,100.0,13.4,1505.3,327.3,-0.7,1.9,2470.333,13.31,0.039,349.8
2020-02-26T08:07:03,42.805,6.029,-0.034,0.059,-0.044,102.0,113.0,101.0,13.4,1505.3,326.4,-0.7,1.9,2470.336,13.31,0.068,330.0
2020-02-26T08:10:03,42.805,6.029,-0.029,0.045,-0.016,104.0,114.0,101.0,13.4,1505.3,326.6,-0.7,1.9,2470.323,13.32,0.053,327.2
2020-02-26T08:13:03,42.805,6.029,-0.025,0.059,-0.035,103.0,111.0,101.0,13.4,1505.3,327.6,-0.7,1.9,2470.298,13.32,0.064,337.0
2020-02-26T08:16:03,42.805,6.029,-0.058,0.058,-0.057,104.0,111.0,101.0,13.4,1505.3,324.1,-0.7,1.8,2470.332,13.32,0.082,315.0
2020-02-26T08:19:03,42.805,6.029,-0.034,0.035,-0.039,104.0,111.0,100.0,13.3,1505.3,325.9,-0.7,1.8,2470.321,13.33,0.048,315.8
2020-02-26T08:22:03,42.805,6.029,-0.05,0.044,-0.049,102.0,111.0,101.0,13.4,1505.3,324.0,-0.7,1.8,2470.319,13.33,0.066,311.3
2020-02-26T08:25:03,42.805,6.029,-0.039,0.051,-0.058,103.0,110.0,102.0,13.4,1505.3,328.3,-0.7,1.8,2470.31,13.33,0.064,322.6
2020-02-26T08:28:03,42.805,6.029,-0.043,0.034,-0.037,103.0,111.0,102.0,13.3,1505.3,326.3,-0.7,1.8,2470.315,13.33,0.054,308.3
2020-02-26T08:31:03,42.805,6.029,-0.047,0.045,-0.059,103.0,112.0,101.0,13.3,1505.3,326.4,-0.7,1.9,2470.307,13.33,0.065,313.8
2020-02-26T08:34:03,42.805,6.029,-0.034,0.052,-0.029,102.0,112.0,99.0,13.4,1505.3,324.4,-0.7,1.9,2470.336,13.33,0.062,326.8
2020-02-26T08:37:03,42.805,6.029,-0.032,0.039,-0.03,103.0,112.0,100.0,13.4,1505.3,323.5,-0.7,1.8,2470.344,13.33,0.05,320.6
2020-02-26T08:40:03,42.805,6.029,-0.045,0.041,-0.025,103.0,110.0,101.0,13.4,1505.3,327.8,-0.7,1.8,2470.336,13.33,0.06,312.3
2020-02-26T08:43:03,42.805,6.029,-0.016,0.049,-0.033,103.0,111.0,100.0,13.4,1505.3,324.7,-0.7,1.9,2470.317,13.33,0.051,341.9
2020-02-26T08:46:03,42.805,6.029,-0.032,0.054,-0.005,104.0,110.0,100.0,13.4,1505.3,323.2,-0.7,1.8,2470.355,13.33,0.062,329.3
2020-02-26T08:49:03,42.805,6.029,-0.05,0.052,-0.028,104.0,108.0,102.0,13.4,1505.3,328.0,-0.7,1.8,2470.307,13.33,0.072,316.1
2020-02-26T08:52:03,42.805,6.029,-0.07,0.049,-0.073,103.0,112.0,101.0,13.4,1505.3,326.7,-0.7,1.8,2470.349,13.33,0.085,305.0
2020-02-26T08:55:03,42.805,6.029,-0.054,0.047,-0.054,104.0,110.0,100.0,13.3,1505.3,323.8,-0.7,1.8,2470.308,13.33,0.071,311.0
2020-02-26T08:58:03,42.805,6.029,-0.014,0.05,-0.013,104.0,109.0,100.0,13.3,1505.3,325.7,-0.7,1.8,2470.33,13.33,0.051,344.4
2020-02-26T09:04:03,42.805,6.029,-0.06,0.049,-0.058,102.0,109.0,102.0,13.4,1505.3,326.6,-0.7,1.8,2470.397,13.31,0.077,309.2
2020-02-26T09:07:03,42.805,6.029,-0.052,0.043,-0.031,104.0,110.0,101.0,13.4,1505.3,326.5,-0.7,1.8,2470.365,13.31,0.067,309.6
2020-02-26T09:10:03,42.805,6.029,-0.039,0.058,-0.03,104.0,110.0,102.0,13.4,1505.3,328.1,-0.7,1.8,2470.33,13.32,0.069,326.1
2020-02-26T09:13:03,42.805,6.029,-0.043,0.048,-0.066,104.0,110.0,101.0,13.3,1505.3,327.3,-0.7,1.8,2470.341,13.32,0.064,318.1
2020-02-26T09:16:03,42.805,6.029,-0.038,0.049,-0.026,102.0,110.0,101.0,13.3,1505.3,326.3,-0.7,1.8,2470.384,13.32,0.062,322.2
2020-02-26T09:19:03,42.805,6.029,-0.036,0.06,-0.02,103.0,110.0,102.0,13.4,1505.3,326.4,-0.7,1.8,2470.316,13.32,0.069,329.0
2020-02-26T09:22:03,42.805,6.029,-0.039,0.028,-0.063,103.0,110.0,102.0,13.3,1505.3,326.5,-0.7,1.9,2470.317,13.32,0.048,305.7
2020-02-26T09:25:03,42.805,6.029,-0.035,0.057,-0.012,104.0,111.0,100.0,13.3,1505.3,323.1,-0.7,1.8,2470.355,13.32,0.066,328.4
2020-02-26T09:28:03,42.805,6.029,-0.035,0.048,-0.086,103.0,110.0,100.0,13.4,1505.3,324.6,-0.7,1.8,2470.319,13.32,0.059,323.9
2020-02-26T09:31:03,42.805,6.029,-0.047,0.051,-0.03,104.0,111.0,100.0,13.3,1505.3,324.4,-0.7,1.8,2470.326,13.33,0.069,317.3
2020-02-26T09:34:03,42.805,6.029,-0.027,0.03,-0.05,105.0,110.0,101.0,13.3,1505.3,327.2,-0.7,1.8,2470.32,13.32,0.04,318.0
2020-02-26T09:37:03,42.805,6.029,-0.022,0.049,-0.051,102.0,110.0,102.0,13.4,1505.3,323.2,-0.7,1.9,2470.353,13.33,0.053,335.8
2020-02-26T09:40:03,42.805,6.029,-0.053,0.039,-0.04,104.0,109.0,101.0,13.4,1505.3,322.7,-0.7,1.8,2470.318,13.33,0.065,306.3
2020-02-26T09:43:03,42.805,6.029,-0.034,0.052,-0.041,104.0,108.0,102.0,13.4,1505.3,323.0,-0.7,1.8,2470.34,13.33,0.062,326.8
2020-02-26T09:46:03,42.805,6.029,-0.044,0.042,-0.019,103.0,111.0,101.0,13.3,1505.3,324.5,-0.7,1.8,2470.329,13.33,0.06,313.7
2020-02-26T09:49:03,42.805,6.029,-0.031,0.049,-0.02,102.0,109.0,101.0,13.4,1505.3,323.3,-0.7,1.8,2470.317,13.33,0.057,327.7
2020-02-26T09:52:03,42.805,6.029,-0.06,0.037,-0.049,103.0,109.0,101.0,13.4,1505.3,324.4,-0.8,1.8,2470.308,13.33,0.07,301.7
2020-02-26T09:55:03,42.805,6.029,-0.018,0.027,-0.041,102.0,111.0,101.0,13.4,1505.3,326.1,-0.7,1.8,2470.288,13.33,0.032,326.3
2020-02-26T09:58:03,42.805,6.029,-0.055,0.054,-0.047,104.0,108.0,101.0,13.3,1505.3,328.2,-0.7,1.8,2470.293,13.33,0.077,314.5